Location: Casilda
(33.0440°S, 61.1680°W)
Time: 16:05:48
(UTC-03:00)

ISS - Pass Details

Date: 07 December 2017
Orbit: 402 x 407 km, 51.6° (Epoch: 11 December)

Event Time Altitude Azimuth Distance (km) Brightness Sun altitude
Exits shadow 02:45:05 14° 118° (ESE) 1,249 -0.7 -28.6°
Drops below altitude 10° 02:45:40 10° 122° (ESE) 1,476 -0.3 -28.5°
Sets 02:47:49 0° 128° (SE) 2,344 1.1 -28.3°
